Torna al catalogo

STARLINK-35275

AttivoComunicazioniVLEO
NORAD 65756·PAYLOAD·🇺🇸 United States

Lanciato Sep 25, 2025 da Cape Canaveral Space Force Station

Loading…

Prossimi Passaggi (prossime 24 ore)

TLE

AggiornatoSource: CelesTrak SupGP

Epoca: Sep 14, 2026, 21:43 UTC

1 65756C 25216Y   26257.90534722 -.00019630  00000+0 -57976-3 0  2573
2 65756  53.1566 172.0500 0001289  91.6795 168.7160 15.34412071    17

Traccia STARLINK-35275 in tempo reale con AllMySat

Download on the App Store